Regional Weather Roundup
Issued by NWS

Home | Current Version | Previous Version | Graphics & Text | Print | Product List | Glossary On
Versions: 1 2 3 4 5 6 7 8 9 10 11 12 13 14 15 16 17 18 19 20 21 22 23 24 25 26 27 28 29 30 31 32 33 34 35 36 37 38 39 40 41 42 43 44 45 46 47 48 49 50
000
ASUS43 KLMK 280710
RWRKY
KENTUCKY REGIONAL WEATHER ROUNDUP
NATIONAL WEATHER SERVICE LOUISVILLE KY
300 AM EDT FRI AUG 28 2015

NOTE "FAIR" INDICATES FEW OR NO CLOUDS BELOW 12,000 FEET
WITH NO SIGNIFICANT WEATHER AND/OR OBSTRUCTIONS TO VISIBILITY.

KYZ001>023-026-027-061>063-070>075-280800-
WESTERN AND SOUTH CENTRAL KENTUCKY

CITY           SKY/WX    TMP DP  RH WIND       PRES   REMARKS
PADUCAH        CLEAR     59  57  93 CALM      30.07F
HENDERSON      CLEAR     59  54  82 CALM      30.09R
OWENSBORO      CLEAR     59  56  89 CALM      30.10F
HOPKINSVILLE   CLEAR     63  56  79 E5        30.08F
BOWLING GREEN  CLEAR     59  55  87 CALM      30.10F
GLASGOW        CLEAR     57  57 100 CALM      30.11S
$$

KYZ024-025-028>034-038-045-046-053-280800-
NORTH CENTRAL KENTUCKY

CITY           SKY/WX    TMP DP  RH WIND       PRES   REMARKS
LOUISVILLE/SDF CLEAR     65  56  72 SE5       30.12F
LOUISVILLE/LOU CLEAR     63  56  78 CALM      30.12F
FORT KNOX      CLEAR     58  55  89 NE2       30.10F
$$

KYZ035>037-039>044-047>052-055>060-089>105-280800-
NORTHEAST KENTUCKY

CITY           SKY/WX    TMP DP  RH WIND       PRES   REMARKS
LEXINGTON      CLEAR     60  52  74 E3        30.13F
COVINGTON      PTCLDY    59  56  89 CALM      30.14F
FRANKFORT      CLEAR     55  52  89 CALM      30.12F
$$

KYZ054-064>069-076>088-106>120-280800-
SOUTHEAST KENTUCKY

CITY           SKY/WX    TMP DP  RH WIND       PRES   REMARKS
JACKSON        CLEAR     59  55  87 CALM      30.14S
LONDON         CLEAR     60  53  77 CALM      30.13S
SOMERSET       CLEAR     59  54  82 CALM      30.13F
MIDDLESBORO    PTCLDY    59  58  97 CALM      30.13F
MONTICELLO     SUNNY     55  55 100 CALM      30.14F
$$



USA.gov is the U.S. government's official web portal to all federal, state and local government web resources and services.